Location: Derby
(52.9213°N, 1.4761°W)
Time: 16:51:40
(UTC+01:00)

Vanguard 1 - Pass Details

Date: 26 May 2025
Orbit: 649 x 3822 km, 34.3° (Epoch: 14 June)

Event Time Altitude Azimuth Distance (km) Brightness Sun altitude
Rises 15:27:59 0° 212° (SSW) 7,939 15.3 47.9°
Reaches altitude 10° 15:34:48 10° 202° (SSW) 6,894 15.1 47.1°
Maximum altitude 15:51:25 28° 155° (SSE) 4,894 13.9 44.9°
Drops below altitude 10° 16:03:58 10° 105° (ESE) 5,202 13.5 43.2°
Sets 16:08:06 0° 94° (E) 5,775 13.6 42.7°
